Theta_e
333 333 333 333 332 331 329 327 326 325 324 321 320 318 316 315 316 314 313 312 312 311 312 312 313 313 313 311 311 309 308 306 305 304 304 304 302 301 301 299 299 300
332 332 333 332 331 330 329 328 326 325 323 322 320 317 317 316 316 314 312 311 312 311 311 311 312 312 310 309 308 307 306 305 305 306 303 302 301 301 300 300 299 299
331 331 332 331 330 329 329 327 326 324 323 321 319 318 317 317 314 312 311 310 310 310 311 312 311 311 310 308 308 307 305 304 303 303 303 301 300 300 299 299 298 298
331 331 331 331 330 329 328 327 325 323 321 319 319 318 318 316 313 310 310 313 310 311 311 311 310 309 308 308 307 305 304 303 302 302 302 301 301 300 299 299 300 298
330 330 330 330 329 329 327 326 324 323 321 320 319 318 316 313 311 310 309 309 310 310 310 310 309 308 308 306 305 303 303 302 302 301 300 299 299 300 299 299 297 296
330 330 329 329 328 327 326 325 324 323 321 319 318 318 315 312 310 309 309 308 309 310 309 308 307 307 306 304 303 303 302 302 301 300 300 300 299 299 299 298 297 296
329 329 328 328 327 326 326 325 324 323 322 320 318 316 313 311 309 308 308 309 308 309 308 307 306 305 304 303 303 302 301 301 300 300 300 299 300 298 298 298 298 297
328 328 327 327 326 326 325 325 323 323 321 319 317 315 312 310 309 308 308 308 308 307 307 307 306 305 303 303 302 301 301 302 300 300 299 298 298 297 297 298 296 296
328 328 327 326 326 325 325 324 323 322 321 318 317 314 312 310 309 308 307 307 307 306 306 305 304 303 303 302 302 302 301 300 301 299 299 298 298 297 296 296 296 296
328 328 327 326 325 325 324 323 323 321 320 318 316 313 311 310 309 308 307 306 306 305 304 304 304 303 303 302 302 302 301 300 299 299 298 298 298 297 296 297 296 296
327 327 326 325 324 324 323 322 322 320 318 317 314 312 311 310 309 308 306 306 305 304 304 303 304 303 302 302 301 301 301 300 299 298 298 298 297 297 302 297 297 296
326 326 325 325 324 323 322 322 321 319 317 316 315 313 311 310 308 307 306 305 305 304 304 304 303 303 302 302 301 301 300 300 299 299 298 298 297 298 298 297 297 296
326 325 325 324 323 322 322 321 319 318 317 315 315 313 311 310 308 306 306 305 304 304 304 303 303 302 302 301 301 300 300 299 299 298 298 298 297 298 297 296 296 296
326 325 325 324 323 322 320 320 319 317 316 315 314 312 311 309 307 306 305 305 304 304 304 304 303 302 301 301 300 300 300 299 299 299 298 297 297 296 296 295 295 296
326 325 324 323 320 320 319 318 318 317 316 315 314 312 312 310 308 307 305 303 303 303 303 303 302 302 302 301 300 299 299 299 299 299 299 298 296 294 294 294 294 294
325 324 323 321 320 319 318 318 317 316 315 314 313 312 311 309 307 306 304 303 302 302 302 303 302 302 306 305 304 301 299 299 299 299 298 297 296 294 293 293 293 292
324 322 321 320 320 319 318 317 317 316 315 314 313 312 310 308 307 304 303 303 303 302 302 302 302 303 302 298 298 301 301 299 299 298 297 296 295 294 293 292 291 292
323 321 320 319 319 318 318 317 317 315 314 313 312 310 309 307 305 304 303 302 302 302 301 302 301 304 297 297 297 298 301 300 299 298 297 295 294 293 292 292 292 294
322 321 320 319 318 318 317 317 316 315 314 312 311 310 308 306 304 303 302 301 302 301 301 301 300 299 296 297 296 296 297 300 299 298 297 295 294 293 292 292 294 295
321 320 319 318 318 317 317 317 316 314 314 313 311 309 307 306 303 302 301 301 301 301 301 300 300 299 296 296 296 295 295 297 298 298 297 295 294 293 293 293 293 293
320 320 318 318 318 317 317 316 316 314 313 312 311 309 307 305 303 301 300 301 301 300 300 300 301 297 295 295 295 295 295 297 299 298 296 295 294 293 293 293 294 295
320 318 317 316 317 317 316 316 315 314 313 311 310 309 308 306 304 303 301 301 301 301 301 300 300 295 294 295 295 294 295 300 298 298 296 295 294 293 294 294 295 297
319 318 317 316 316 316 316 315 314 313 312 311 309 308 306 304 303 302 302 302 301 301 301 301 300 296 294 295 294 294 297 299 298 298 296 295 295 297 297 296 297 297
319 318 317 316 316 316 315 315 315 313 312 310 309 307 306 305 303 303 302 302 302 301 302 301 300 297 294 294 294 294 299 298 298 298 297 297 297 298 298 296 296 302
319 318 317 316 316 316 316 314 314 313 312 310 310 308 307 305 304 302 302 301 302 302 305 302 300 298 294 294 294 294 298 299 299 299 298 298 298 298 298 297 296 301
319 317 316 316 316 315 315 314 313 312 310 310 308 308 306 304 303 302 301 301 301 301 302 302 300 299 297 293 294 294 297 301 300 299 299 298 298 298 298 296 296 296
Wind_Speed
10 9 10 9 9 8 8 8 7 8 7 6 7 6 7 5 5 5 4 5 4 5 5 5 5 5 5 5 5 4 4 5 5 4 6 7 6 7 7 6 5 6
11 11 9 9 8 7 7 7 8 9 7 7 5 6 5 6 5 5 5 5 4 5 4 5 5 6 6 5 5 6 5 5 6 2 7 7 6 7 7 6 7 5
11 11 12 11 10 10 9 7 7 7 8 7 6 5 6 5 6 4 5 5 6 5 5 5 5 5 6 5 4 5 6 6 6 4 6 7 5 7 5 6 6 6
12 12 11 11 10 10 9 8 7 6 7 7 7 6 6 6 6 6 5 5 6 5 5 5 6 5 5 6 6 5 5 5 5 6 7 5 5 6 6 6 6 6
12 11 10 10 9 9 9 9 9 8 9 8 7 6 7 7 7 6 5 5 5 6 5 6 5 5 6 6 5 6 5 6 4 6 7 6 4 6 4 6 7 7
11 10 10 10 10 10 10 10 10 9 9 9 8 7 7 7 7 6 6 6 5 6 6 5 6 5 5 6 5 6 6 6 5 6 7 7 4 4 4 6 7 7
12 11 11 10 10 10 11 10 10 9 9 8 7 7 8 7 7 6 6 6 6 6 6 6 6 5 4 5 5 5 5 6 5 6 7 5 5 5 4 5 6 6
12 10 10 10 11 10 10 10 10 9 9 8 9 7 8 8 7 6 6 7 7 6 6 6 6 6 5 5 6 6 5 4 6 6 6 5 5 5 4 5 5 6
12 11 11 11 12 10 10 10 9 9 8 10 8 8 6 7 7 7 7 6 6 6 6 6 6 6 5 5 6 7 7 5 5 6 7 7 6 5 5 5 6 6
13 12 13 12 12 10 11 10 9 9 8 9 9 8 8 5 6 7 7 7 7 6 6 6 6 5 5 5 6 6 6 6 5 5 5 5 6 6 6 6 7 7
13 13 13 13 12 9 11 10 10 9 8 9 9 8 7 7 6 6 7 7 7 7 7 6 6 6 6 5 4 5 6 6 6 5 5 5 5 6 6 6 6 7
13 12 13 13 12 11 11 11 10 10 10 9 10 10 8 7 8 7 7 7 6 7 7 6 6 6 6 6 6 5 5 5 5 5 5 5 5 4 5 5 6 6
13 13 12 12 11 11 10 10 10 10 10 10 9 10 10 9 7 7 5 7 7 7 7 7 6 6 6 6 6 6 6 6 6 5 5 5 4 4 4 4 5 6
13 13 12 12 11 11 11 10 9 10 10 9 9 10 9 9 10 9 6 6 7 7 6 6 6 6 5 6 6 6 6 6 6 6 6 4 4 4 4 4 5 5
11 11 11 11 10 10 11 11 10 10 10 9 9 9 8 8 8 8 8 7 6 6 7 6 7 7 6 7 7 6 6 7 7 7 6 6 4 4 4 4 4 4
12 11 11 12 11 11 11 11 10 10 10 10 10 9 9 8 8 8 8 8 8 6 6 6 6 5 7 12 9 8 7 6 6 6 6 6 6 5 4 4 4 4
12 11 12 13 13 11 11 11 11 10 10 10 9 9 9 9 9 9 7 7 8 8 7 6 6 5 11 12 13 12 8 7 7 6 5 6 6 6 6 5 4 4
13 13 11 10 12 12 12 11 11 11 11 10 10 9 8 8 9 9 8 7 7 7 7 6 6 8 13 13 13 13 10 8 6 6 6 5 6 6 5 4 4 3
13 13 14 12 11 12 12 11 11 11 11 10 11 10 9 9 9 8 8 7 7 8 7 6 5 9 13 13 13 13 12 9 6 6 7 6 5 6 5 5 4 4
13 13 13 14 13 11 11 12 12 12 11 10 9 9 10 9 8 9 7 7 8 8 7 6 6 9 13 13 13 13 12 10 6 7 6 6 6 6 5 5 5 6
13 13 13 13 14 14 12 11 12 11 11 10 9 10 10 10 10 9 7 7 7 7 7 7 6 11 13 14 13 13 13 9 6 6 6 5 5 5 6 6 5 5
14 13 12 11 13 13 13 12 11 12 12 10 9 8 8 8 7 8 9 9 8 8 7 8 6 12 14 14 14 13 13 7 7 7 6 5 5 4 4 3 4 5
14 14 13 13 12 13 12 12 11 11 10 9 9 9 9 9 9 9 9 9 8 8 9 8 7 11 14 15 14 15 11 6 6 6 6 6 6 5 6 7 7 9
14 14 14 13 13 14 13 11 10 9 10 9 10 10 9 9 9 7 7 8 10 9 10 9 8 10 15 14 15 16 12 8 7 7 6 7 7 6 6 6 7 12
13 13 14 14 12 11 12 12 11 10 8 8 8 8 9 8 8 8 7 7 8 9 10 10 7 8 13 14 15 16 11 7 8 7 7 5 5 6 6 6 5 9
12 14 14 14 14 12 10 10 9 8 9 9 7 7 7 7 7 9 10 8 7 6 7 8 8 7 11 14 14 14 14 10 6 8 7 9 8 7 6 5 5 5
Wind_Direction
163 165 165 170 173 174 170 164 164 161 158 155 162 160 153 144 145 139 134 127 130 128 133 132 128 119 105 103 104 99 99 105 103 115 111 111 112 116 113 114 104 110
165 164 165 166 168 171 170 167 164 161 155 155 154 142 133 138 139 139 139 134 129 133 135 127 121 121 124 121 121 120 114 116 111 117 113 107 115 110 112 113 108 109
162 167 168 171 173 172 168 161 159 154 148 147 140 145 139 139 137 137 143 141 137 136 131 126 119 119 121 120 119 123 128 123 116 116 108 114 120 110 115 111 99 99
166 167 170 172 171 169 161 154 151 143 137 142 160 156 144 142 139 141 145 142 137 136 131 124 123 122 121 121 126 119 121 115 123 121 108 101 109 114 116 108 103 93
163 166 169 169 168 163 159 160 160 161 161 153 142 144 142 142 143 146 145 144 142 135 133 128 123 127 125 123 129 122 121 120 121 118 115 114 118 115 124 111 108 100
163 165 166 167 165 162 166 166 165 165 156 149 157 151 149 147 149 154 154 149 144 137 133 130 128 128 130 127 122 124 131 126 130 121 119 123 120 108 119 113 111 108
162 163 165 163 163 168 166 167 166 164 160 154 142 155 149 151 156 157 156 148 143 143 142 141 138 135 131 126 125 127 128 128 130 128 124 129 127 112 103 109 109 108
160 161 162 162 164 169 169 166 165 163 154 146 158 156 156 156 157 155 150 147 143 142 142 141 143 140 142 135 136 133 132 133 134 133 129 134 130 128 111 106 113 111
158 163 163 165 167 170 170 166 161 154 155 155 156 156 157 159 158 154 150 145 143 146 145 148 148 147 149 144 145 144 142 141 143 141 143 144 138 135 128 125 117 119
162 162 164 167 169 170 169 163 154 155 157 155 152 155 160 157 154 152 147 150 149 149 152 150 150 149 150 153 151 148 144 145 146 143 141 143 140 140 143 140 136 127
162 163 166 167 168 167 164 156 159 153 156 153 153 160 160 152 154 153 150 155 157 158 157 157 157 155 153 153 148 146 145 146 149 146 145 145 147 152 150 144 144 140
162 164 167 167 165 163 161 162 160 159 157 157 161 162 160 163 160 163 162 159 158 160 157 157 157 159 160 157 152 144 141 144 146 147 150 153 159 153 145 151 142 138
164 167 166 166 164 161 160 159 161 160 158 162 166 163 163 164 165 159 162 158 159 156 159 158 158 160 158 155 152 150 151 148 149 150 156 161 157 146 146 139 136 139
165 164 164 164 161 158 158 159 158 158 160 157 159 164 169 169 166 165 156 156 159 161 160 155 156 160 160 158 157 158 154 155 156 158 159 154 139 141 140 137 144 151
162 162 161 160 158 153 152 156 162 159 156 159 166 167 169 168 159 152 151 154 158 160 159 158 161 169 169 164 161 163 159 158 161 159 158 150 144 139 139 142 149 154
159 160 159 153 155 159 160 158 158 158 156 163 169 168 164 159 157 157 159 160 161 164 162 163 170 170 176 172 167 162 163 158 155 159 156 153 149 145 149 159 159 157
153 158 160 161 160 158 157 158 160 159 158 165 167 164 162 161 158 159 164 166 166 166 168 170 172 178 175 172 170 163 159 159 159 160 156 152 155 156 161 168 172 168
158 157 161 161 156 157 158 162 160 159 159 166 165 164 163 158 163 169 166 166 165 165 169 173 176 179 171 173 171 169 164 159 156 157 157 158 158 157 156 156 158 143
158 161 160 161 164 157 159 160 162 159 161 166 171 169 157 164 172 164 170 168 166 167 174 175 176 175 171 174 174 173 166 153 156 155 157 162 161 158 155 154 152 144
161 162 165 164 160 159 161 163 163 164 167 169 165 161 165 167 166 170 167 171 171 172 171 173 176 175 173 175 176 173 165 154 153 158 160 161 162 159 157 161 163 159
161 163 166 166 162 159 163 167 166 163 166 169 168 169 170 171 171 172 174 172 173 168 164 173 188 171 175 177 177 171 165 152 149 152 154 157 160 162 165 165 165 158
161 162 163 165 160 159 161 165 166 167 169 168 166 169 171 164 166 166 170 176 174 165 165 180 183 174 177 178 175 171 161 153 153 155 158 157 161 166 161 160 146 126
162 161 164 165 163 161 162 162 165 167 166 162 166 170 167 170 170 174 176 171 169 171 176 180 179 181 180 177 176 169 161 152 155 149 157 162 167 167 163 179 181 176
163 163 164 167 164 166 160 162 165 163 167 168 170 168 171 171 166 163 169 173 172 178 180 177 189 181 180 180 176 173 168 160 159 156 162 173 181 179 176 193 199 196
163 165 165 165 165 161 156 159 167 166 161 162 167 168 167 161 161 160 165 175 183 181 176 175 176 178 182 180 179 177 169 155 160 161 161 161 166 196 203 199 208 216
167 170 169 164 159 151 154 160 153 149 154 159 156 159 155 158 166 166 170 180 175 166 168 175 169 172 186 186 181 179 171 166 160 150 163 183 193 193 195 212 216 225